Time,TemperatureF,DewpointF,PressureIn,WindDirection,WindDirectionDegrees,WindSpeedMPH,WindSpeedGustMPH,Humidity,HourlyPrecipIn,Conditions,Clouds,dailyrainin,SoftwareType,DateUTC
2013-02-22 00:00:00,25.0,23.2,29.81,North,11,0.0,3.0,93,0.00,,,0.00,meteohub,2013-02-22 06:00:00,
2013-02-22 00:05:00,25.0,23.2,29.82,NNE,28,0.0,3.0,93,0.00,,,0.00,meteohub,2013-02-22 06:05:00,
2013-02-22 00:10:00,24.8,23.0,29.82,NNE,28,0.0,3.0,93,0.00,,,0.00,meteohub,2013-02-22 06:10:00,
2013-02-22 00:15:00,24.8,23.0,29.82,NNE,26,1.0,2.0,93,0.00,,,0.00,meteohub,2013-02-22 06:15:00,
2013-02-22 00:20:00,24.6,22.8,29.82,North,5,0.0,2.0,93,0.00,,,0.00,meteohub,2013-02-22 06:20:00,
2013-02-22 00:25:00,24.8,23.0,29.82,WNW,292,0.0,2.0,93,0.00,,,0.00,meteohub,2013-02-22 06:25:00,
2013-02-22 00:30:00,24.8,23.0,29.82,NW,307,1.0,2.0,93,0.00,,,0.00,meteohub,2013-02-22 06:30:00,
2013-02-22 00:35:00,25.0,23.2,29.82,NW,307,0.0,2.0,93,0.00,,,0.00,meteohub,2013-02-22 06:35:00,
2013-02-22 00:40:00,25.0,23.2,29.83,West,273,2.0,3.0,93,0.00,,,0.00,meteohub,2013-02-22 06:40:00,
2013-02-22 00:45:00,24.8,23.0,29.83,WNW,288,2.0,3.0,93,0.00,,,0.00,meteohub,2013-02-22 06:45:00,
2013-02-22 00:50:00,24.8,23.0,29.83,WNW,292,5.0,5.0,93,0.00,,,0.00,meteohub,2013-02-22 06:50:00,
2013-02-22 00:55:00,24.8,23.0,29.84,WNW,285,3.0,3.0,93,0.00,,,0.00,meteohub,2013-02-22 06:55:00,
2013-02-22 01:00:00,24.6,22.8,29.83,NW,307,2.0,3.0,93,0.00,,,0.00,meteohub,2013-02-22 07:00:00,
2013-02-22 01:05:00,24.6,22.8,29.84,NW,309,2.0,7.0,93,0.00,,,0.00,meteohub,2013-02-22 07:05:00,
2013-02-22 01:10:00,24.6,22.8,29.84,West,269,1.0,7.0,93,0.00,,,0.00,meteohub,2013-02-22 07:10:00,
2013-02-22 01:15:00,24.6,22.8,29.85,West,261,5.0,7.0,93,0.00,,,0.00,meteohub,2013-02-22 07:15:00,
2013-02-22 01:20:00,24.6,22.8,29.85,WNW,284,4.0,7.0,93,0.00,,,0.00,meteohub,2013-02-22 07:20:00,
2013-02-22 01:25:00,24.4,22.6,29.85,WNW,298,4.0,7.0,93,0.00,,,0.00,meteohub,2013-02-22 07:25:00,
2013-02-22 01:30:00,24.4,22.6,29.84,WNW,285,4.0,7.0,93,0.00,,,0.00,meteohub,2013-02-22 07:30:00,
2013-02-22 01:35:00,24.4,22.6,29.85,WNW,298,2.0,7.0,93,0.00,,,0.00,meteohub,2013-02-22 07:35:00,
2013-02-22 01:40:00,24.4,22.6,29.84,WNW,290,1.0,7.0,93,0.00,,,0.00,meteohub,2013-02-22 07:40:00,
2013-02-22 01:45:00,24.4,22.6,29.84,WNW,286,3.0,7.0,93,0.00,,,0.00,meteohub,2013-02-22 07:45:00,
2013-02-22 01:50:00,24.4,22.6,29.85,WNW,284,3.0,5.0,93,0.00,,,0.00,meteohub,2013-02-22 07:50:00,
2013-02-22 01:55:00,24.4,22.6,29.85,West,279,10.0,10.0,93,0.00,,,0.00,meteohub,2013-02-22 07:55:00,
2013-02-22 02:00:00,24.4,22.6,29.85,West,277,6.0,6.0,93,0.00,,,0.00,meteohub,2013-02-22 08:00:00,
2013-02-22 02:05:00,24.3,22.5,29.85,West,281,5.0,5.0,93,0.00,,,0.00,meteohub,2013-02-22 08:05:00,
2013-02-22 02:10:00,24.3,22.5,29.85,West,273,6.0,6.0,93,0.00,,,0.00,meteohub,2013-02-22 08:10:00,
2013-02-22 02:15:00,24.1,22.1,29.85,WNW,283,5.0,13.0,92,0.00,,,0.00,meteohub,2013-02-22 08:15:00,
2013-02-22 02:20:00,24.1,22.1,29.85,WNW,287,5.0,13.0,92,0.00,,,0.00,meteohub,2013-02-22 08:20:00,
2013-02-22 02:25:00,23.9,21.9,29.85,West,281,5.0,13.0,92,0.00,,,0.00,meteohub,2013-02-22 08:25:00,
2013-02-22 02:30:00,23.9,21.9,29.85,WNW,298,4.0,12.0,92,0.00,,,0.00,meteohub,2013-02-22 08:30:00,
2013-02-22 02:35:00,23.9,21.9,29.85,West,269,5.0,12.0,92,0.00,,,0.00,meteohub,2013-02-22 08:35:00,
2013-02-22 02:40:00,23.7,21.7,29.85,WNW,293,6.0,12.0,92,0.00,,,0.00,meteohub,2013-02-22 08:40:00,
2013-02-22 02:45:00,23.7,21.7,29.85,WSW,252,4.0,12.0,92,0.00,,,0.00,meteohub,2013-02-22 08:45:00,
2013-02-22 02:50:00,23.7,21.7,29.85,WNW,288,3.0,11.0,92,0.00,,,0.00,meteohub,2013-02-22 08:50:00,
2013-02-22 02:55:00,23.7,21.7,29.85,West,275,6.0,11.0,92,0.00,,,0.00,meteohub,2013-02-22 08:55:00,
2013-02-22 03:00:00,23.7,21.7,29.86,West,267,1.0,11.0,92,0.00,,,0.00,meteohub,2013-02-22 09:00:00,
2013-02-22 03:05:00,23.7,21.7,29.86,West,277,5.0,11.0,92,0.00,,,0.00,meteohub,2013-02-22 09:05:00,
2013-02-22 03:10:00,23.7,21.7,29.86,West,265,3.0,11.0,92,0.00,,,0.00,meteohub,2013-02-22 09:10:00,
2013-02-22 03:15:00,23.7,21.7,29.86,West,275,4.0,11.0,92,0.00,,,0.00,meteohub,2013-02-22 09:15:00,
2013-02-22 03:20:00,23.5,21.6,29.87,WNW,292,0.0,11.0,92,0.00,,,0.00,meteohub,2013-02-22 09:20:00,
2013-02-22 03:25:00,23.5,21.6,29.87,WSW,256,3.0,11.0,92,0.00,,,0.00,meteohub,2013-02-22 09:25:00,
2013-02-22 03:30:00,23.5,21.6,29.87,WNW,284,7.0,11.0,92,0.00,,,0.00,meteohub,2013-02-22 09:30:00,
2013-02-22 03:35:00,23.5,21.6,29.87,WSW,258,2.0,11.0,92,0.00,,,0.00,meteohub,2013-02-22 09:35:00,
2013-02-22 03:40:00,23.5,21.6,29.87,WNW,283,4.0,11.0,92,0.00,,,0.00,meteohub,2013-02-22 09:40:00,
2013-02-22 03:45:00,23.5,21.6,29.87,WNW,290,6.0,11.0,92,0.00,,,0.00,meteohub,2013-02-22 09:45:00,
2013-02-22 03:50:00,23.4,21.2,29.87,West,271,4.0,11.0,91,0.00,,,0.00,meteohub,2013-02-22 09:50:00,
2013-02-22 03:55:00,23.4,21.2,29.88,WNW,298,1.0,11.0,91,0.00,,,0.00,meteohub,2013-02-22 09:55:00,
2013-02-22 04:00:00,23.2,21.0,29.88,West,273,5.0,11.0,91,0.00,,,0.00,meteohub,2013-02-22 10:00:00,
2013-02-22 04:05:00,23.0,20.8,29.88,WNW,291,4.0,11.0,91,0.00,,,0.00,meteohub,2013-02-22 10:05:00,
2013-02-22 04:10:00,22.8,20.7,29.88,West,279,4.0,11.0,91,0.00,,,0.00,meteohub,2013-02-22 10:10:00,
2013-02-22 04:15:00,22.6,20.5,29.88,NW,313,3.0,11.0,91,0.00,,,0.00,meteohub,2013-02-22 10:15:00,
2013-02-22 04:20:00,22.6,20.5,29.89,West,269,4.0,11.0,91,0.00,,,0.00,meteohub,2013-02-22 10:20:00,
2013-02-22 04:25:00,22.6,20.5,29.89,West,280,3.0,11.0,91,0.00,,,0.00,meteohub,2013-02-22 10:25:00,
2013-02-22 04:30:00,22.6,20.5,29.89,West,279,5.0,12.0,91,0.00,,,0.00,meteohub,2013-02-22 10:30:00,
2013-02-22 04:35:00,22.6,20.5,29.89,WNW,286,5.0,12.0,91,0.00,,,0.00,meteohub,2013-02-22 10:35:00,
2013-02-22 04:40:00,22.8,20.7,29.90,SW,219,4.0,12.0,91,0.00,,,0.00,meteohub,2013-02-22 10:40:00,
2013-02-22 04:45:00,22.8,20.7,29.90,SW,229,2.0,12.0,91,0.00,,,0.00,meteohub,2013-02-22 10:45:00,
2013-02-22 04:51:00,22.8,20.7,29.90,West,273,3.0,12.0,91,0.00,,,0.00,meteohub,2013-02-22 10:51:00,
2013-02-22 04:55:00,22.6,20.5,29.90,West,277,4.0,14.0,91,0.00,,,0.00,meteohub,2013-02-22 10:55:00,
2013-02-22 05:00:00,22.5,20.3,29.91,WNW,290,4.0,14.0,91,0.00,,,0.00,meteohub,2013-02-22 11:00:00,
2013-02-22 05:05:00,22.5,20.3,29.91,West,277,7.0,14.0,91,0.00,,,0.00,meteohub,2013-02-22 11:05:00,
2013-02-22 05:11:00,22.5,20.3,29.91,WNW,282,5.0,14.0,91,0.00,,,0.00,meteohub,2013-02-22 11:11:00,
2013-02-22 05:16:00,22.5,20.3,29.91,NW,306,4.0,14.0,91,0.00,,,0.00,meteohub,2013-02-22 11:16:00,
2013-02-22 05:21:00,22.5,20.3,29.92,WNW,299,5.0,14.0,91,0.00,,,0.00,meteohub,2013-02-22 11:21:00,
2013-02-22 05:26:00,22.5,19.9,29.92,WNW,298,4.0,14.0,90,0.00,,,0.00,meteohub,2013-02-22 11:26:00,
2013-02-22 05:31:00,22.5,19.9,29.92,WNW,292,6.0,14.0,90,0.00,,,0.00,meteohub,2013-02-22 11:31:00,
2013-02-22 05:36:00,22.5,19.9,29.92,West,278,2.0,14.0,90,0.00,,,0.00,meteohub,2013-02-22 11:36:00,
2013-02-22 05:41:00,22.5,19.9,29.93,West,278,11.0,14.0,90,0.00,,,0.00,meteohub,2013-02-22 11:41:00,
2013-02-22 05:46:00,22.5,19.9,29.93,West,271,9.0,14.0,90,0.00,,,0.00,meteohub,2013-02-22 11:46:00,
2013-02-22 05:51:00,22.3,19.8,29.93,WNW,295,7.0,14.0,90,0.00,,,0.00,meteohub,2013-02-22 11:51:00,
2013-02-22 05:56:00,22.1,19.6,29.93,West,277,10.0,14.0,90,0.00,,,0.00,meteohub,2013-02-22 11:56:00,
2013-02-22 06:01:00,21.7,19.2,29.94,WSW,256,6.0,14.0,90,0.00,,,0.00,meteohub,2013-02-22 12:01:00,
2013-02-22 06:06:00,21.7,19.2,29.93,West,274,2.0,14.0,90,0.00,,,0.00,meteohub,2013-02-22 12:06:00,
2013-02-22 06:11:00,21.6,19.0,29.92,West,270,4.0,14.0,90,0.00,,,0.00,meteohub,2013-02-22 12:11:00,
2013-02-22 06:16:00,21.6,19.0,29.93,WNW,288,2.0,14.0,90,0.00,,,0.00,meteohub,2013-02-22 12:16:00,
2013-02-22 06:21:00,21.6,19.0,29.93,WNW,284,2.0,14.0,90,0.00,,,0.00,meteohub,2013-02-22 12:21:00,
2013-02-22 06:26:00,21.4,18.7,29.93,SW,236,4.0,14.0,89,0.00,,,0.00,meteohub,2013-02-22 12:26:00,
2013-02-22 06:31:00,21.4,18.7,29.93,WNW,302,9.0,14.0,89,0.00,,,0.00,meteohub,2013-02-22 12:31:00,
2013-02-22 06:36:00,21.2,18.5,29.93,West,263,3.0,14.0,89,0.00,,,0.00,meteohub,2013-02-22 12:36:00,
2013-02-22 06:41:00,21.0,18.3,29.94,WNW,288,3.0,14.0,89,0.00,,,0.00,meteohub,2013-02-22 12:41:00,
2013-02-22 06:46:00,20.8,18.1,29.94,WNW,300,5.0,14.0,89,0.00,,,0.00,meteohub,2013-02-22 12:46:00,
2013-02-22 06:51:00,20.8,18.1,29.94,West,263,7.0,14.0,89,0.00,,,0.00,meteohub,2013-02-22 12:51:00,
2013-02-22 06:56:00,20.7,18.0,29.94,WNW,297,2.0,14.0,89,0.00,,,0.00,meteohub,2013-02-22 12:56:00,
2013-02-22 07:01:00,20.7,18.0,29.94,WSW,248,7.0,14.0,89,0.00,,,0.00,meteohub,2013-02-22 13:01:00,
2013-02-22 07:06:00,20.5,17.8,29.96,West,269,1.0,14.0,89,0.00,,,0.00,meteohub,2013-02-22 13:06:00,
2013-02-22 07:11:00,20.1,17.4,29.96,WNW,286,6.0,14.0,89,0.00,,,0.00,meteohub,2013-02-22 13:11:00,
2013-02-22 07:16:00,20.1,17.4,29.96,West,267,7.0,12.0,89,0.00,,,0.00,meteohub,2013-02-22 13:16:00,
2013-02-22 07:21:00,19.9,17.2,29.96,WNW,288,7.0,12.0,89,0.00,,,0.00,meteohub,2013-02-22 13:21:00,
2013-02-22 07:26:00,19.8,17.1,29.97,NW,316,6.0,12.0,89,0.00,,,0.00,meteohub,2013-02-22 13:26:00,
2013-02-22 07:31:00,19.8,17.1,29.97,WNW,293,9.0,12.0,89,0.00,,,0.00,meteohub,2013-02-22 13:31:00,
2013-02-22 07:36:00,19.6,16.9,29.97,West,269,4.0,12.0,89,0.00,,,0.00,meteohub,2013-02-22 13:36:00,
2013-02-22 07:41:00,19.6,16.9,29.97,West,281,6.0,12.0,89,0.00,,,0.00,meteohub,2013-02-22 13:41:00,
2013-02-22 07:46:00,19.4,16.7,29.98,WNW,290,5.0,12.0,89,0.00,,,0.00,meteohub,2013-02-22 13:46:00,
2013-02-22 07:51:00,19.4,16.7,29.98,West,270,9.0,12.0,89,0.00,,,0.00,meteohub,2013-02-22 13:51:00,
2013-02-22 07:56:00,19.2,16.5,29.99,NW,306,11.0,16.0,89,0.00,,,0.00,meteohub,2013-02-22 13:56:00,
2013-02-22 08:01:00,19.2,16.5,29.99,West,265,5.0,16.0,89,0.00,,,0.00,meteohub,2013-02-22 14:01:00,
2013-02-22 08:06:00,19.0,16.3,29.99,NW,304,6.0,16.0,89,0.00,,,0.00,meteohub,2013-02-22 14:06:00,
2013-02-22 08:11:00,19.0,16.3,29.99,NW,304,13.0,16.0,89,0.00,,,0.00,meteohub,2013-02-22 14:11:00,
2013-02-22 08:16:00,19.0,16.3,29.99,WNW,289,9.0,16.0,89,0.00,,,0.00,meteohub,2013-02-22 14:16:00,
2013-02-22 08:21:00,19.0,16.3,29.99,NW,312,7.0,16.0,89,0.00,,,0.00,meteohub,2013-02-22 14:21:00,
2013-02-22 08:26:00,19.2,16.5,29.99,NW,319,9.0,16.0,89,0.00,,,0.00,meteohub,2013-02-22 14:26:00,
2013-02-22 08:31:00,19.4,16.7,29.99,West,271,7.0,19.0,89,0.00,,,0.00,meteohub,2013-02-22 14:31:00,
2013-02-22 08:36:00,19.4,16.7,29.99,WNW,290,13.0,19.0,89,0.00,,,0.00,meteohub,2013-02-22 14:36:00,
2013-02-22 08:41:00,19.6,16.5,30.00,NW,310,4.0,19.0,88,0.00,,,0.00,meteohub,2013-02-22 14:41:00,
2013-02-22 08:46:00,19.8,17.1,30.00,West,263,5.0,19.0,89,0.00,,,0.00,meteohub,2013-02-22 14:46:00,
2013-02-22 08:51:00,19.8,17.1,30.00,NW,313,5.0,19.0,89,0.00,,,0.00,meteohub,2013-02-22 14:51:00,
2013-02-22 08:56:00,19.9,17.2,30.01,North,355,10.0,19.0,89,0.00,,,0.00,meteohub,2013-02-22 14:56:00,
2013-02-22 09:01:00,19.9,16.9,30.01,WNW,303,9.0,17.0,88,0.00,,,0.00,meteohub,2013-02-22 15:01:00,
2013-02-22 09:06:00,19.9,16.9,30.01,WNW,300,3.0,17.0,88,0.00,,,0.00,meteohub,2013-02-22 15:06:00,
2013-02-22 09:11:00,19.9,16.9,30.01,NW,306,5.0,17.0,88,0.00,,,0.00,meteohub,2013-02-22 15:11:00,
2013-02-22 09:16:00,19.9,16.9,30.01,WNW,290,0.0,17.0,88,0.00,,,0.00,meteohub,2013-02-22 15:16:00,
2013-02-22 09:21:00,19.9,16.9,30.01,NW,304,0.0,17.0,88,0.00,,,0.00,meteohub,2013-02-22 15:21:00,
2013-02-22 09:26:00,20.1,17.1,30.01,NW,308,0.0,17.0,88,0.00,,,0.00,meteohub,2013-02-22 15:26:00,
2013-02-22 09:31:00,20.5,17.4,30.01,NW,311,0.0,16.0,88,0.00,,,0.00,meteohub,2013-02-22 15:31:00,
2013-02-22 09:36:00,20.5,17.2,30.01,NW,318,0.0,16.0,87,0.00,,,0.00,meteohub,2013-02-22 15:36:00,
2013-02-22 09:41:00,20.5,17.2,30.02,NW,308,0.0,16.0,87,0.00,,,0.00,meteohub,2013-02-22 15:41:00,
2013-02-22 09:46:00,20.7,17.4,30.03,West,268,0.0,16.0,87,0.00,,,0.00,meteohub,2013-02-22 15:46:00,
2013-02-22 09:51:00,20.8,17.6,30.03,NW,318,0.0,16.0,87,0.00,,,0.00,meteohub,2013-02-22 15:51:00,
2013-02-22 09:56:00,21.4,18.1,30.03,WNW,302,0.0,16.0,87,0.00,,,0.00,meteohub,2013-02-22 15:56:00,
2013-02-22 10:01:00,21.7,18.5,30.04,West,281,0.0,0.0,87,0.00,,,0.00,meteohub,2013-02-22 16:01:00,
2013-02-22 10:06:00,21.7,18.1,30.04,WNW,286,0.0,0.0,86,0.00,,,0.00,meteohub,2013-02-22 16:06:00,
2013-02-22 10:11:00,21.7,18.1,30.04,West,277,0.0,0.0,86,0.00,,,0.00,meteohub,2013-02-22 16:11:00,
2013-02-22 10:16:00,22.1,18.5,30.05,WNW,296,0.0,0.0,86,0.00,,,0.00,meteohub,2013-02-22 16:16:00,
2013-02-22 10:21:00,22.1,18.5,30.05,NW,306,0.0,0.0,86,0.00,,,0.00,meteohub,2013-02-22 16:21:00,
2013-02-22 10:26:00,22.5,18.9,30.05,West,268,0.0,0.0,86,0.00,,,0.00,meteohub,2013-02-22 16:26:00,
2013-02-22 10:31:00,22.6,19.0,30.06,West,269,0.0,0.0,86,0.00,,,0.00,meteohub,2013-02-22 16:31:00,
2013-02-22 10:36:00,23.0,19.4,30.06,WNW,298,0.0,0.0,86,0.00,,,0.00,meteohub,2013-02-22 16:36:00,
2013-02-22 10:41:00,23.4,19.8,30.06,WNW,296,0.0,0.0,86,0.00,,,0.00,meteohub,2013-02-22 16:41:00,
2013-02-22 10:46:00,23.5,19.8,30.06,WNW,287,8.0,0.0,85,0.00,,,0.00,meteohub,2013-02-22 16:46:00,
2013-02-22 10:51:00,23.4,19.6,30.06,NW,309,9.0,0.0,85,0.00,,,0.00,meteohub,2013-02-22 16:51:00,
2013-02-22 10:56:00,23.5,19.8,30.06,WNW,284,5.0,0.0,85,0.00,,,0.00,meteohub,2013-02-22 16:56:00,
2013-02-22 11:01:00,23.7,19.9,30.06,WNW,300,4.0,14.0,85,0.00,,,0.00,meteohub,2013-02-22 17:01:00,
2013-02-22 11:06:00,23.9,19.8,30.07,NW,317,4.0,14.0,84,0.00,,,0.00,meteohub,2013-02-22 17:06:00,
2013-02-22 11:11:00,24.1,19.9,30.07,NW,308,9.0,14.0,84,0.00,,,0.00,meteohub,2013-02-22 17:11:00,
2013-02-22 11:16:00,24.1,19.9,30.07,WNW,282,7.0,14.0,84,0.00,,,0.00,meteohub,2013-02-22 17:16:00,
2013-02-22 11:21:00,24.1,19.9,30.07,WNW,292,5.0,14.0,84,0.00,,,0.00,meteohub,2013-02-22 17:21:00,
2013-02-22 11:26:00,24.4,20.7,30.07,NW,311,3.0,14.0,85,0.00,,,0.00,meteohub,2013-02-22 17:26:00,
2013-02-22 11:31:00,24.8,21.0,30.07,NW,306,4.0,14.0,85,0.00,,,0.00,meteohub,2013-02-22 17:31:00,
2013-02-22 11:36:00,24.8,21.0,30.08,WNW,293,4.0,10.0,85,0.00,,,0.00,meteohub,2013-02-22 17:36:00,
2013-02-22 11:41:00,24.8,20.7,30.07,WSW,255,5.0,10.0,84,0.00,,,0.00,meteohub,2013-02-22 17:41:00,
2013-02-22 11:46:00,25.0,20.8,30.07,West,266,6.0,10.0,84,0.00,,,0.00,meteohub,2013-02-22 17:46:00,
2013-02-22 11:51:00,25.2,20.7,30.08,West,280,10.0,10.0,83,0.00,,,0.00,meteohub,2013-02-22 17:51:00,
2013-02-22 11:56:00,25.2,20.5,30.08,West,269,4.0,11.0,82,0.00,,,0.00,meteohub,2013-02-22 17:56:00,
2013-02-22 12:01:00,25.2,20.5,30.08,NW,313,10.0,11.0,82,0.00,,,0.00,meteohub,2013-02-22 18:01:00,
2013-02-22 12:06:00,25.2,20.5,30.08,WNW,286,6.0,11.0,82,0.00,,,0.00,meteohub,2013-02-22 18:06:00,
2013-02-22 12:11:00,25.3,20.7,30.08,WNW,300,2.0,11.0,82,0.00,,,0.00,meteohub,2013-02-22 18:11:00,
2013-02-22 12:16:00,25.9,21.2,30.08,West,279,14.0,14.0,82,0.00,,,0.00,meteohub,2013-02-22 18:16:00,
2013-02-22 12:21:00,25.9,20.8,30.08,WNW,293,6.0,13.0,81,0.00,,,0.00,meteohub,2013-02-22 18:21:00,
2013-02-22 12:26:00,25.7,20.5,30.09,WNW,294,5.0,13.0,80,0.00,,,0.00,meteohub,2013-02-22 18:26:00,
2013-02-22 12:31:00,25.5,20.5,30.09,West,280,3.0,13.0,81,0.00,,,0.03,meteohub,2013-02-22 18:31:00,
2013-02-22 12:36:00,25.9,20.8,30.08,NW,311,8.0,13.0,81,0.00,,,0.03,meteohub,2013-02-22 18:36:00,
2013-02-22 12:41:00,26.1,21.0,30.09,WNW,282,3.0,13.0,81,0.04,,,0.03,meteohub,2013-02-22 18:41:00,
2013-02-22 12:46:00,26.2,21.2,30.09,WSW,240,5.0,13.0,81,0.04,,,0.03,meteohub,2013-02-22 18:46:00,
2013-02-22 12:51:00,26.4,21.4,30.08,SW,236,2.0,13.0,81,0.04,,,0.03,meteohub,2013-02-22 18:51:00,
2013-02-22 12:56:00,26.6,21.2,30.08,West,270,3.0,13.0,80,0.04,,,0.03,meteohub,2013-02-22 18:56:00,
2013-02-22 13:01:00,26.6,21.2,30.08,West,259,8.0,13.0,80,0.04,,,0.06,meteohub,2013-02-22 19:01:00,
2013-02-22 13:06:00,26.4,20.8,30.08,WNW,296,6.0,13.0,79,0.04,,,0.06,meteohub,2013-02-22 19:06:00,
2013-02-22 13:11:00,26.2,20.7,30.08,WNW,290,7.0,13.0,79,0.07,,,0.06,meteohub,2013-02-22 19:11:00,
2013-02-22 13:16:00,26.1,20.5,30.08,WNW,294,4.0,13.0,79,0.07,,,0.06,meteohub,2013-02-22 19:16:00,
2013-02-22 13:21:00,26.1,20.5,30.08,WNW,285,6.0,13.0,79,0.07,,,0.06,meteohub,2013-02-22 19:21:00,
2013-02-22 13:26:00,26.4,21.0,30.07,NW,304,11.0,13.0,80,0.07,,,0.09,meteohub,2013-02-22 19:26:00,
2013-02-22 13:31:00,26.6,21.0,30.07,WSW,258,6.0,17.0,79,0.07,,,0.09,meteohub,2013-02-22 19:31:00,
2013-02-22 13:36:00,26.8,21.2,30.07,West,267,6.0,17.0,79,0.07,,,0.09,meteohub,2013-02-22 19:36:00,
2013-02-22 13:41:00,26.6,20.7,30.07,WSW,258,10.0,17.0,78,0.07,,,0.09,meteohub,2013-02-22 19:41:00,
2013-02-22 13:46:00,26.8,21.2,30.07,WNW,293,5.0,17.0,79,0.07,,,0.10,meteohub,2013-02-22 19:46:00,
2013-02-22 13:51:00,27.1,21.2,30.07,WNW,297,6.0,13.0,78,0.07,,,0.10,meteohub,2013-02-22 19:51:00,
2013-02-22 13:56:00,26.8,20.8,30.07,WNW,291,4.0,13.0,78,0.07,,,0.10,meteohub,2013-02-22 19:56:00,
2013-02-22 14:01:00,26.8,20.8,30.07,West,259,8.0,13.0,78,0.07,,,0.10,meteohub,2013-02-22 20:01:00,
2013-02-22 14:06:00,27.0,21.0,30.07,West,275,4.0,13.0,78,0.07,,,0.12,meteohub,2013-02-22 20:06:00,
2013-02-22 14:11:00,27.1,21.2,30.07,NW,325,9.0,13.0,78,0.05,,,0.12,meteohub,2013-02-22 20:11:00,
2013-02-22 14:16:00,27.3,21.7,30.06,WNW,292,5.0,15.0,79,0.05,,,0.12,meteohub,2013-02-22 20:16:00,
2013-02-22 14:21:00,27.1,21.2,30.06,NW,313,2.0,15.0,78,0.05,,,0.12,meteohub,2013-02-22 20:21:00,
2013-02-22 14:26:00,27.1,20.8,30.06,NW,315,4.0,15.0,77,0.05,,,0.14,meteohub,2013-02-22 20:26:00,
2013-02-22 14:31:00,27.3,21.4,30.06,WNW,295,8.0,14.0,78,0.04,,,0.14,meteohub,2013-02-22 20:31:00,
2013-02-22 14:36:00,27.3,21.0,30.06,WNW,290,9.0,14.0,77,0.04,,,0.14,meteohub,2013-02-22 20:36:00,
2013-02-22 14:41:00,27.1,20.8,30.06,WSW,255,4.0,14.0,77,0.04,,,0.14,meteohub,2013-02-22 20:41:00,
2013-02-22 14:46:00,27.3,21.4,30.06,SSW,212,5.0,14.0,78,0.04,,,0.15,meteohub,2013-02-22 20:46:00,
2013-02-22 14:51:00,27.9,21.6,30.06,NW,325,6.0,13.0,77,0.05,,,0.15,meteohub,2013-02-22 20:51:00,
2013-02-22 14:56:00,27.9,21.6,30.06,WNW,284,4.0,13.0,77,0.05,,,0.15,meteohub,2013-02-22 20:56:00,
2013-02-22 15:01:00,27.9,21.2,30.06,WNW,287,7.0,13.0,76,0.05,,,0.15,meteohub,2013-02-22 21:01:00,
2013-02-22 15:06:00,27.5,21.0,30.06,NW,313,4.0,13.0,76,0.05,,,0.16,meteohub,2013-02-22 21:06:00,
2013-02-22 15:11:00,27.7,21.4,30.06,WNW,291,4.0,13.0,77,0.03,,,0.16,meteohub,2013-02-22 21:11:00,
2013-02-22 15:16:00,27.7,21.4,30.06,NW,314,6.0,13.0,77,0.03,,,0.16,meteohub,2013-02-22 21:16:00,
2013-02-22 15:21:00,28.0,21.7,30.06,SSW,202,5.0,13.0,77,0.03,,,0.16,meteohub,2013-02-22 21:21:00,
2013-02-22 15:26:00,28.2,21.9,30.06,SW,229,6.0,13.0,77,0.03,,,0.17,meteohub,2013-02-22 21:26:00,
2013-02-22 15:31:00,28.4,22.1,30.06,West,270,4.0,12.0,77,0.04,,,0.17,meteohub,2013-02-22 21:31:00,
2013-02-22 15:36:00,28.2,21.9,30.06,West,277,4.0,12.0,77,0.04,,,0.17,meteohub,2013-02-22 21:36:00,
2013-02-22 15:41:00,28.0,21.4,30.06,WSW,248,4.0,12.0,76,0.04,,,0.17,meteohub,2013-02-22 21:41:00,
2013-02-22 15:46:00,27.9,21.2,30.06,NW,306,6.0,12.0,76,0.04,,,0.18,meteohub,2013-02-22 21:46:00,
2013-02-22 15:51:00,27.9,21.6,30.06,West,279,8.0,13.0,77,0.03,,,0.18,meteohub,2013-02-22 21:51:00,
2013-02-22 15:56:00,28.0,21.7,30.06,SW,222,3.0,13.0,77,0.03,,,0.18,meteohub,2013-02-22 21:56:00,
2013-02-22 16:01:00,28.2,21.6,30.06,SW,227,0.0,13.0,76,0.03,,,0.18,meteohub,2013-02-22 22:01:00,
2013-02-22 16:06:00,28.2,21.6,30.06,WNW,283,5.0,13.0,76,0.03,,,0.19,meteohub,2013-02-22 22:06:00,
2013-02-22 16:11:00,28.2,21.6,30.06,NW,309,4.0,13.0,76,0.04,,,0.19,meteohub,2013-02-22 22:11:00,
2013-02-22 16:16:00,28.0,21.2,30.06,WSW,248,10.0,12.0,75,0.04,,,0.19,meteohub,2013-02-22 22:16:00,
2013-02-22 16:21:00,28.0,21.2,30.06,WNW,298,7.0,12.0,75,0.04,,,0.19,meteohub,2013-02-22 22:21:00,
2013-02-22 16:26:00,28.0,21.4,30.06,NW,313,5.0,12.0,76,0.04,,,0.20,meteohub,2013-02-22 22:26:00,
2013-02-22 16:31:00,28.0,21.2,30.06,NW,315,3.0,12.0,75,0.02,,,0.20,meteohub,2013-02-22 22:31:00,
2013-02-22 16:36:00,28.0,20.8,30.06,WNW,292,5.0,12.0,74,0.02,,,0.20,meteohub,2013-02-22 22:36:00,
2013-02-22 16:41:00,28.2,21.4,30.06,WNW,297,3.0,12.0,75,0.02,,,0.20,meteohub,2013-02-22 22:41:00,
2013-02-22 16:47:00,28.6,21.7,30.06,WSW,258,2.0,12.0,75,0.02,,,0.21,meteohub,2013-02-22 22:47:00,
2013-02-22 16:52:00,28.6,21.4,30.06,WNW,292,5.0,10.0,74,0.02,,,0.21,meteohub,2013-02-22 22:52:00,
2013-02-22 16:57:00,28.6,21.4,30.06,West,280,3.0,10.0,74,0.02,,,0.21,meteohub,2013-02-22 22:57:00,
2013-02-22 17:02:00,28.4,20.8,30.06,WSW,252,6.0,10.0,73,0.02,,,0.21,meteohub,2013-02-22 23:02:00,
2013-02-22 17:07:00,28.2,20.7,30.07,WNW,292,4.0,10.0,73,0.02,,,0.21,meteohub,2013-02-22 23:07:00,
2013-02-22 17:12:00,28.2,21.0,30.07,WNW,289,4.0,10.0,74,0.02,,,0.21,meteohub,2013-02-22 23:12:00,
2013-02-22 17:17:00,28.0,20.5,30.07,WNW,283,5.0,11.0,73,0.02,,,0.21,meteohub,2013-02-22 23:17:00,
2013-02-22 17:22:00,27.7,20.1,30.06,WNW,302,5.0,11.0,73,0.02,,,0.21,meteohub,2013-02-22 23:22:00,
2013-02-22 17:27:00,27.3,20.1,30.07,WNW,288,3.0,11.0,74,0.02,,,0.22,meteohub,2013-02-22 23:27:00,
2013-02-22 17:32:00,27.3,20.1,30.07,West,279,3.0,12.0,74,0.02,,,0.22,meteohub,2013-02-22 23:32:00,
2013-02-22 17:37:00,27.1,19.9,30.07,West,278,3.0,12.0,74,0.02,,,0.22,meteohub,2013-02-22 23:37:00,
2013-02-22 17:42:00,27.0,20.1,30.08,NW,304,9.0,12.0,75,0.02,,,0.22,meteohub,2013-02-22 23:42:00,
2013-02-22 17:47:00,26.8,19.9,30.08,West,279,4.0,12.0,75,0.02,,,0.22,meteohub,2013-02-22 23:47:00,
2013-02-22 17:52:00,26.8,19.6,30.08,WNW,294,2.0,9.0,74,0.01,,,0.22,meteohub,2013-02-22 23:52:00,
2013-02-22 17:57:00,26.6,19.8,30.08,WNW,296,3.0,9.0,75,0.01,,,0.22,meteohub,2013-02-22 23:57:00,
2013-02-22 18:02:00,26.4,19.6,30.08,WNW,283,4.0,9.0,75,0.01,,,0.22,meteohub,2013-02-23 00:02:00,
2013-02-22 18:07:00,26.2,19.4,30.08,WNW,296,3.0,9.0,75,0.01,,,0.22,meteohub,2013-02-23 00:07:00,
2013-02-22 18:12:00,26.1,19.2,30.09,WNW,293,3.0,9.0,75,0.01,,,0.22,meteohub,2013-02-23 00:12:00,
2013-02-22 18:17:00,25.9,19.4,30.08,West,281,4.0,7.0,76,0.00,,,0.22,meteohub,2013-02-23 00:17:00,
2013-02-22 18:22:00,25.9,19.4,30.08,NW,308,3.0,7.0,76,0.00,,,0.22,meteohub,2013-02-23 00:22:00,
2013-02-22 18:27:00,25.7,19.2,30.09,WNW,300,3.0,7.0,76,0.00,,,0.22,meteohub,2013-02-23 00:27:00,
2013-02-22 18:32:00,25.5,19.4,30.09,NW,304,3.0,7.0,77,0.00,,,0.00,meteohub,2013-02-23 00:32:00,
2013-02-22 18:37:00,25.3,18.9,30.09,WNW,293,2.0,7.0,76,0.00,,,0.00,meteohub,2013-02-23 00:37:00,
2013-02-22 18:42:00,25.2,18.7,30.09,WNW,286,2.0,6.0,76,0.00,,,0.00,meteohub,2013-02-23 00:42:00,
2013-02-22 18:47:00,25.2,18.7,30.09,WNW,287,2.0,6.0,76,0.00,,,0.00,meteohub,2013-02-23 00:47:00,
2013-02-22 18:52:00,25.0,18.5,30.09,West,281,4.0,6.0,76,0.00,,,0.00,meteohub,2013-02-23 00:52:00,
2013-02-22 18:57:00,24.8,18.3,30.10,WNW,288,2.0,6.0,76,0.00,,,0.00,meteohub,2013-02-23 00:57:00,
2013-02-22 19:02:00,24.6,18.1,30.09,West,280,2.0,6.0,76,0.00,,,0.00,meteohub,2013-02-23 01:02:00,
2013-02-22 19:07:00,24.6,18.5,30.09,WNW,288,1.0,6.0,77,0.00,,,0.00,meteohub,2013-02-23 01:07:00,
2013-02-22 19:12:00,24.6,18.5,30.10,WNW,288,1.0,5.0,77,0.00,,,0.00,meteohub,2013-02-23 01:12:00,
2013-02-22 19:17:00,24.6,18.5,30.09,WNW,291,2.0,5.0,77,0.00,,,0.00,meteohub,2013-02-23 01:17:00,
2013-02-22 19:22:00,24.4,18.3,30.10,WNW,288,2.0,5.0,77,0.00,,,0.00,meteohub,2013-02-23 01:22:00,
2013-02-22 19:27:00,24.4,18.3,30.10,WNW,286,2.0,5.0,77,0.00,,,0.00,meteohub,2013-02-23 01:27:00,
2013-02-22 19:32:00,24.4,18.5,30.10,WNW,299,2.0,4.0,78,0.00,,,0.00,meteohub,2013-02-23 01:32:00,
2013-02-22 19:37:00,24.4,18.5,30.10,WNW,293,2.0,4.0,78,0.00,,,0.00,meteohub,2013-02-23 01:37:00,
2013-02-22 19:42:00,24.3,18.3,30.10,WNW,292,1.0,4.0,78,0.00,,,0.00,meteohub,2013-02-23 01:42:00,
2013-02-22 19:47:00,24.4,18.5,30.10,WSW,248,2.0,4.0,78,0.00,,,0.00,meteohub,2013-02-23 01:47:00,
2013-02-22 19:52:00,24.4,18.5,30.10,West,263,2.0,4.0,78,0.00,,,0.00,meteohub,2013-02-23 01:52:00,
2013-02-22 19:57:00,24.4,18.5,30.10,WNW,296,1.0,4.0,78,0.00,,,0.00,meteohub,2013-02-23 01:57:00,
2013-02-22 20:02:00,24.3,18.3,30.10,WSW,248,1.0,4.0,78,0.00,,,0.00,meteohub,2013-02-23 02:02:00,
2013-02-22 20:07:00,24.3,18.3,30.10,West,263,1.0,4.0,78,0.00,,,0.00,meteohub,2013-02-23 02:07:00,
2013-02-22 20:12:00,24.3,18.3,30.09,WSW,248,1.0,4.0,78,0.00,,,0.00,meteohub,2013-02-23 02:12:00,
2013-02-22 20:17:00,24.3,18.3,30.10,WSW,239,3.0,4.0,78,0.00,,,0.00,meteohub,2013-02-23 02:17:00,
2013-02-22 20:22:00,24.1,18.1,30.10,WSW,238,2.0,4.0,78,0.00,,,0.00,meteohub,2013-02-23 02:22:00,
2013-02-22 20:27:00,23.9,18.0,30.10,SW,233,3.0,4.0,78,0.00,,,0.00,meteohub,2013-02-23 02:27:00,
2013-02-22 20:32:00,23.7,18.0,30.10,West,269,1.0,6.0,78,0.00,,,0.00,meteohub,2013-02-23 02:32:00,
2013-02-22 20:37:00,23.5,17.8,30.10,WSW,242,3.0,6.0,78,0.00,,,0.00,meteohub,2013-02-23 02:37:00,
2013-02-22 20:42:00,23.5,18.0,30.11,West,259,2.0,6.0,79,0.00,,,0.00,meteohub,2013-02-23 02:42:00,
2013-02-22 20:47:00,23.4,17.8,30.11,WSW,246,1.0,6.0,79,0.00,,,0.00,meteohub,2013-02-23 02:47:00,
2013-02-22 20:52:00,23.4,17.8,30.11,WSW,246,3.0,7.0,79,0.00,,,0.00,meteohub,2013-02-23 02:52:00,
2013-02-22 20:57:00,23.0,17.2,30.11,West,260,2.0,7.0,78,0.00,,,0.00,meteohub,2013-02-23 02:57:00,
2013-02-22 21:02:00,22.8,17.2,30.11,WNW,291,3.0,7.0,79,0.00,,,0.00,meteohub,2013-02-23 03:02:00,
2013-02-22 21:07:00,22.8,17.2,30.11,West,274,5.0,7.0,79,0.00,,,0.00,meteohub,2013-02-23 03:07:00,
2013-02-22 21:12:00,22.6,17.1,30.11,West,270,3.0,7.0,79,0.00,,,0.00,meteohub,2013-02-23 03:12:00,
2013-02-22 21:17:00,22.6,17.1,30.10,WSW,252,3.0,10.0,79,0.00,,,0.00,meteohub,2013-02-23 03:17:00,
2013-02-22 21:22:00,22.5,16.9,30.10,West,274,3.0,10.0,79,0.00,,,0.00,meteohub,2013-02-23 03:22:00,
2013-02-22 21:27:00,22.5,16.9,30.10,WNW,284,2.0,10.0,79,0.00,,,0.00,meteohub,2013-02-23 03:27:00,
2013-02-22 21:32:00,22.3,16.7,30.11,WNW,293,2.0,7.0,79,0.00,,,0.00,meteohub,2013-02-23 03:32:00,
2013-02-22 21:37:00,21.9,16.7,30.11,West,269,3.0,7.0,80,0.00,,,0.00,meteohub,2013-02-23 03:37:00,
2013-02-22 21:42:00,21.9,16.7,30.11,West,281,3.0,7.0,80,0.00,,,0.00,meteohub,2013-02-23 03:42:00,
2013-02-22 21:47:00,21.7,16.5,30.11,West,276,3.0,7.0,80,0.00,,,0.00,meteohub,2013-02-23 03:47:00,
2013-02-22 21:52:00,21.6,16.3,30.11,West,278,2.0,10.0,80,0.00,,,0.00,meteohub,2013-02-23 03:52:00,
2013-02-22 21:57:00,21.4,16.2,30.11,WNW,293,2.0,10.0,80,0.00,,,0.00,meteohub,2013-02-23 03:57:00,
2013-02-22 22:02:00,21.4,16.2,30.11,West,281,1.0,10.0,80,0.00,,,0.00,meteohub,2013-02-23 04:02:00,
2013-02-22 22:07:00,21.4,16.2,30.11,WNW,289,4.0,10.0,80,0.00,,,0.00,meteohub,2013-02-23 04:07:00,
2013-02-22 22:12:00,21.4,16.2,30.11,WNW,299,5.0,10.0,80,0.00,,,0.00,meteohub,2013-02-23 04:12:00,
2013-02-22 22:17:00,21.4,16.2,30.10,West,274,3.0,9.0,80,0.00,,,0.00,meteohub,2013-02-23 04:17:00,
2013-02-22 22:22:00,21.0,15.8,30.11,West,281,3.0,9.0,80,0.00,,,0.00,meteohub,2013-02-23 04:22:00,
2013-02-22 22:27:00,21.0,15.8,30.11,West,281,0.0,9.0,80,0.00,,,0.00,meteohub,2013-02-23 04:27:00,
2013-02-22 22:32:00,20.8,15.6,30.11,WNW,294,2.0,5.0,80,0.00,,,0.00,meteohub,2013-02-23 04:32:00,
2013-02-22 22:37:00,20.7,15.4,30.10,West,278,0.0,5.0,80,0.00,,,0.00,meteohub,2013-02-23 04:37:00,
2013-02-22 22:42:00,20.7,15.8,30.11,West,259,3.0,5.0,81,0.00,,,0.00,meteohub,2013-02-23 04:42:00,
2013-02-22 22:47:00,20.5,15.6,30.10,West,266,0.0,5.0,81,0.00,,,0.00,meteohub,2013-02-23 04:47:00,
2013-02-22 22:52:00,20.3,15.4,30.10,West,279,1.0,6.0,81,0.00,,,0.00,meteohub,2013-02-23 04:52:00,
2013-02-22 22:57:00,20.1,15.3,30.10,West,278,3.0,6.0,81,0.00,,,0.00,meteohub,2013-02-23 04:57:00,
2013-02-22 23:00:00,19.9,15.1,30.10,West,281,2.0,6.0,81,0.00,,,0.00,meteohub,2013-02-23 05:00:00,
2013-02-22 23:05:00,19.9,15.3,30.10,WNW,292,1.0,6.0,82,0.00,,,0.00,meteohub,2013-02-23 05:05:00,
2013-02-22 23:10:00,19.9,15.3,30.10,West,278,2.0,6.0,82,0.00,,,0.00,meteohub,2013-02-23 05:10:00,
2013-02-22 23:15:00,19.8,15.1,30.11,WSW,239,1.0,4.0,82,0.00,,,0.00,meteohub,2013-02-23 05:15:00,
2013-02-22 23:20:00,19.8,15.1,30.11,West,267,1.0,4.0,82,0.00,,,0.00,meteohub,2013-02-23 05:20:00,
2013-02-22 23:25:00,19.8,15.1,30.10,West,277,2.0,4.0,82,0.00,,,0.00,meteohub,2013-02-23 05:25:00,
2013-02-22 23:30:00,19.6,14.9,30.10,WNW,286,0.0,4.0,82,0.00,,,0.00,meteohub,2013-02-23 05:30:00,
2013-02-22 23:35:00,19.6,14.9,30.10,West,275,2.0,4.0,82,0.00,,,0.00,meteohub,2013-02-23 05:35:00,
2013-02-22 23:40:00,19.4,14.7,30.11,West,269,1.0,4.0,82,0.00,,,0.00,meteohub,2013-02-23 05:40:00,
2013-02-22 23:45:00,19.2,14.7,30.11,WNW,286,1.0,4.0,82,0.00,,,0.00,meteohub,2013-02-23 05:45:00,
2013-02-22 23:50:00,19.0,14.5,30.11,WSW,240,3.0,4.0,82,0.00,,,0.00,meteohub,2013-02-23 05:50:00,
2013-02-22 23:55:00,18.9,14.4,30.11,WNW,287,2.0,5.0,82,0.00,,,0.00,meteohub,2013-02-23 05:55:00,